This is the latest recevied weather packets stored in our database for station/object SR6WXJG. If no packets are shown the sender has not sent any weather packets the latest 10 day(s).
| Time | Temp. | Humidity | Pressure | Rain* | Wind** | Luminosity | Snow |
|---|---|---|---|---|---|---|---|
| 1778077284 | 21.11° C | 57% | 1005 hPa | 0 mm | - | - | - |
| 1778076384 | 21.67° C | 54% | 1005 hPa | 0 mm | - | - | - |
| 1778075484 | 21.67° C | 54% | 1005 hPa | 0 mm | - | - | - |
| 1778074583 | 21.67° C | 53% | 1005 hPa | 0 mm | - | - | - |
| 1778073683 | 21.67° C | 52% | 1006 hPa | 0 mm | - | - | - |
| 1778072783 | 21.67° C | 53% | 1005 hPa | 0 mm | - | - | - |
| 1778071882 | 21.67° C | 53% | 1005 hPa | 0 mm | - | - | - |
| 1778070982 | 21.67° C | 53% | 1005 hPa | 0 mm | - | - | - |
| 1778070082 | 21.11° C | 54% | 1006 hPa | 0 mm | - | - | - |
| 1778069181 | 21.11° C | 55% | 1007 hPa | 0 mm | - | - | - |
| 1778068281 | 21.11° C | 54% | 1006 hPa | 0 mm | - | - | - |
| 1778067381 | 21.11° C | 54% | 1006 hPa | 0 mm | - | - | - |
| 1778066480 | 20.56° C | 57% | 1007 hPa | 0 mm | - | - | - |
| 1778065580 | 20.56° C | 58% | 1007 hPa | 0 mm | - | - | - |
| 1778064679 | 20.56° C | 57% | 1006 hPa | 0 mm | - | - | - |
| 1778063779 | 20.56° C | 57% | 1006 hPa | 0 mm | - | - | - |
| 1778062879 | 20° C | 61% | 1007 hPa | 0 mm | - | - | - |
| 1778061978 | 19.44° C | 63% | 1007 hPa | 0 mm | - | - | - |
| 1778061078 | 20° C | 62% | 1006 hPa | 0 mm | - | - | - |
| 1778060178 | 19.44° C | 62% | 1006 hPa | 0 mm | - | - | - |
| 1778059277 | 18.33° C | 67% | 1007 hPa | 0 mm | - | - | - |
| 1778058377 | 18.33° C | 69% | 1007 hPa | 0 mm | - | - | - |
| 1778057476 | 18.33° C | 69% | 1006 hPa | 0 mm | - | - | - |
| 1778056576 | 18.33° C | 69% | 1006 hPa | 0 mm | - | - | - |
| 1778055676 | 17.22° C | 73% | 1007 hPa | 0 mm | - | - | - |
* Rain latest hour (hover to see other rain measurements)
** Current wind speed in m/s (hover to see current wind gust speed)